[[{"header":{"parameterUnit":"m.s-1","parameterCategory":1,"la1":30.2991,"la2":30.254,"lo1":-89.0895,"lo2":-89.0444,"dy":0.0017,"dx":0.0017,"nx":28,"ny":28,"refTime":"2024-02-16T03:00:00:Z","depth":0,"parameterNumber":2,"parameterNumberName":"U-component_of_WINDS"},"data":[0,0,0,0,0,0,0,0,0,0,0,0,0,0,0,0,0,0,0,0,0,0,0,0,0,0,0,0,0,0,0,0,0,0,0,0,0,0,0,0,0,0,0,0,0,0,0,0,0,0,0,0,0,0,0,0,0,0,-0.2471,-0.2471,0,-0.2476,-0.2476,-0.2476,-0.246,-0.246,-0.2459,-0.2459,-0.2466,-0.2466,-0.2467,0,0,0,0,0,0,0,0,0,0,0,0,0,-0.245,-0.245,-0.2471,-0.2471,-0.2471,-0.2476,-0.2476,-0.2476,-0.2461,-0.246,-0.2459,-0.2459,-0.2466,-0.2466,-0.2467,0,0,0,0,0,0,0,0,0,0,0,0,0,-0.2457,-0.245,-0.2471,-0.2464,-0.2463,-0.2476,-0.2476,-0.2476,-0.2461,-0.246,-0.2459,-0.2459,-0.2465,-0.2466,-0.2467,-0.2487,0,0,-0.247,-0.247,0,0,0,0,0,0,0,0,-0.2457,-0.2458,-0.2465,-0.2465,-0.2464,-0.2467,-0.2471,-0.248,-0.2461,-0.2462,-0.2459,-0.2458,-0.2467,-0.2468,-0.247,-0.2488,-0.2488,-0.247,-0.2471,-0.2471,-0.2471,0,0,0,0,0,0,0,-0.2456,-0.2458,-0.2473,-0.2465,-0.2465,-0.2461,-0.2461,-0.2473,-0.2468,-0.2462,-0.246,-0.2461,-0.2466,-0.2469,-0.247,-0.2488,-0.247,-0.2471,-0.2471,-0.2472,-0.2522,-0.2523,0,0,0,0,0,0,-0.2457,-0.2458,-0.2473,-0.2473,-0.2459,-0.2462,-0.2462,-0.2467,-0.2468,-0.2468,-0.2462,-0.246,-0.2468,-0.2469,-0.247,-0.2494,-0.2471,-0.2472,-0.2472,-0.2521,-0.2522,-0.2523,0,0,0,0,0,0,-0.2456,-0.2458,-0.2473,-0.2465,-0.2467,-0.2463,-0.2468,-0.2467,-0.247,-0.2468,-0.2468,-0.2465,-0.2467,-0.2469,-0.2483,-0.2494,-0.2472,-0.2473,-0.252,-0.2522,-0.2523,-0.2542,0,0,0,0,0,0,-0.2456,-0.2458,-0.2466,-0.2465,-0.2467,-0.2485,-0.2469,-0.2468,-0.2471,-0.247,-0.2471,-0.2471,-0.2467,-0.2482,-0.2484,-0.2495,-0.2474,-0.2519,-0.2521,-0.2522,-0.254,-0.2543,-0.2546,0,0,0,0,0,-0.2455,-0.2471,-0.2466,-0.2468,-0.2476,-0.2486,-0.2487,-0.2481,-0.2472,-0.248,-0.2479,-0.2471,-0.2492,-0.2483,-0.2486,-0.2497,-0.2519,-0.252,-0.2522,-0.2539,-0.2543,-0.2546,0,0,0,0,0,0,-0.2474,-0.2471,-0.2465,-0.2482,-0.2484,-0.2483,-0.2493,-0.2486,-0.2491,-0.2489,-0.2483,-0.2483,-0.2499,-0.2499,-0.2489,-0.2517,-0.2504,-0.2506,-0.2516,-0.252,-0.2523,-0.2523,-0.2475,0,0,0,0,0,-0.248,-0.2487,-0.2485,-0.25,-0.2501,-0.2497,-0.2501,-0.2496,-0.2498,-0.2499,-0.2499,-0.2502,-0.2509,-0.2514,-0.2521,-0.254,-0.254,-0.2549,-0.2552,-0.2554,-0.2557,-0.2567,-0.2571,-0.2529,-0.2529,-0.2529,0,0,-0.2493,-0.2492,-0.2497,-0.2503,-0.2505,-0.2513,-0.2498,-0.2507,-0.2513,-0.2501,-0.2514,-0.2514,-0.2517,-0.2533,-0.254,-0.2534,-0.2568,-0.2557,-0.2559,-0.256,-0.2569,-0.2573,-0.2576,-0.253,-0.253,-0.2529,0,0,-0.252,-0.252,-0.2532,-0.2534,-0.2535,-0.2532,-0.2535,-0.2535,-0.2534,-0.2547,-0.2537,-0.2545,-0.2558,-0.256,-0.2563,-0.259,-0.2583,-0.2592,-0.2608,-0.2618,-0.2621,-0.2624,-0.2634,-0.2638,-0.2594,-0.2594,-0.2594,0,-0.2536,-0.2547,-0.254,-0.255,-0.2553,-0.2541,-0.2553,-0.2555,-0.2559,-0.2562,-0.2554,-0.2569,-0.2571,-0.2587,-0.2594,-0.2596,-0.26,-0.2592,-0.2621,-0.2624,-0.2627,-0.2636,-0.264,-0.2595,-0.2595,-0.2595,-0.2595,0,-0.2567,-0.2575,-0.2585,-0.2588,-0.2592,-0.2604,-0.2598,-0.2603,-0.2598,-0.2595,-0.2608,-0.2609,-0.2615,-0.2619,-0.2614,-0.2635,-0.2631,-0.2622,-0.261,-0.2632,-0.2641,-0.2645,-0.2597,-0.2597,-0.2596,-0.2596,0,0,-0.2608,-0.2606,-0.2609,-0.2611,-0.2611,-0.2617,-0.2628,-0.2633,-0.2638,-0.2641,-0.265,-0.266,-0.2652,-0.2655,-0.2651,-0.2659,-0.2681,-0.265,-0.265,-0.2656,-0.2704,-0.271,-0.2715,-0.2676,-0.2676,-0.2677,-0.2704,0,-0.2635,-0.2653,-0.2646,-0.2664,-0.2671,-0.266,-0.2669,-0.267,-0.2668,-0.2674,-0.2672,-0.268,-0.2669,-0.267,-0.2678,-0.2676,-0.269,-0.2674,-0.2685,-0.2685,-0.2685,-0.2719,-0.2727,-0.2752,-0.2707,-0.2708,-0.2708,0,-0.267,-0.2673,-0.2692,-0.269,-0.2693,-0.2701,-0.2706,-0.2712,-0.2713,-0.2711,-0.2714,-0.2707,-0.2717,-0.2704,-0.2718,-0.2708,-0.2711,-0.2711,-0.2712,-0.2713,-0.2698,-0.2722,-0.276,-0.2764,-0.2713,-0.2713,-0.2712,0,-0.2698,-0.2707,-0.2719,-0.2721,-0.2719,-0.2725,-0.2725,-0.2725,-0.2729,-0.2733,-0.2735,-0.274,-0.2743,-0.2747,-0.2742,-0.2732,-0.2757,-0.2743,-0.2756,-0.2756,-0.2763,-0.2763,-0.2802,-0.2764,-0.2764,-0.2764,-0.2764,0,-0.273,-0.2742,-0.2732,-0.274,-0.2753,-0.2745,-0.2758,-0.2757,-0.2757,-0.2764,-0.2754,-0.2762,-0.2754,-0.276,-0.2756,-0.2769,-0.277,-0.2769,-0.2768,-0.2771,-0.2771,-0.2774,-0.2772,-0.2765,-0.2765,-0.2764,-0.2764,0,-0.2764,-0.2758,-0.2771,-0.2768,-0.2767,-0.2777,-0.2775,-0.2782,-0.2778,-0.2788,-0.279,-0.2785,-0.2792,-0.2786,-0.2794,-0.2791,-0.2808,-0.2804,-0.2807,-0.2807,-0.282,-0.2819,-0.2863,-0.2869,-0.2826,-0.2827,-0.2827,0,-0.2785,-0.2794,-0.2791,-0.2795,-0.2795,-0.2802,-0.2805,-0.2797,-0.2801,-0.2802,-0.2809,-0.2815,-0.282,-0.2832,-0.2829,-0.2835,-0.2831,-0.2846,-0.2832,-0.2834,-0.2832,-0.2832,-0.2833,-0.285,-0.285,-0.2851,-0.2851,0,-0.2823,-0.2819,-0.2824,-0.2828,-0.2831,-0.2834,-0.2836,-0.284,-0.2831,-0.2836,-0.2843,-0.2846,-0.2853,-0.286,-0.2864,-0.2864,-0.2856,-0.2855,-0.2858,-0.2861,-0.2863,-0.2863,-0.2816,-0.2854,-0.2854,-0.2854,-0.2854,-0.2854,-0.2852,-0.2859,-0.2858,-0.2864,-0.2864,-0.2866,-0.2872,-0.2869,-0.2874,-0.2879,-0.2874,-0.2882,-0.2882,-0.2887,-0.2888,-0.2894,-0.2888,-0.2893,-0.2894,-0.2896,-0.2898,-0.2861,-0.2895,-0.2895,-0.2895,-0.2895,-0.2895,0,-0.289,-0.2888,-0.2893,-0.2896,-0.29,-0.2891,-0.2892,-0.2897,-0.2904,-0.2905,-0.2909,-0.2917,-0.2922,-0.2919,-0.2925,-0.293,-0.2927,-0.2932,-0.2932,-0.2932,-0.2903,-0.29,-0.2935,-0.2935,-0.2935,-0.2935,-0.2935,-0.2935,-0.291,-0.2922,-0.2918,-0.293,-0.2928,-0.2935,-0.2937,-0.2939,-0.2939,-0.2948,-0.2952,-0.295,-0.2949,-0.2954,-0.2959,-0.2958,-0.2961,-0.2967,-0.2965,-0.2938,-0.2934,-0.293,-0.2927,-0.2968,-0.2968,-0.2993,-0.2994,-0.2994]},{"header":{"parameterUnit":"m.s-1","parameterCategory":1,"la1":30.2991,"la2":30.254,"lo1":-89.0895,"lo2":-89.0444,"dy":0.0017,"dx":0.0017,"nx":28,"ny":28,"refTime":"2024-02-16T03:00:00:Z","depth":0,"parameterNumber":3,"parameterNumberName":"V-component_of_WINDS"},"data":[0,0,0,0,0,0,0,0,0,0,0,0,0,0,0,0,0,0,0,0,0,0,0,0,0,0,0,0,0,0,0,0,0,0,0,0,0,0,0,0,0,0,0,0,0,0,0,0,0,0,0,0,0,0,0,0,0,0,-7.9125,-7.9127,0,-7.9279,-7.928,-7.9282,-7.9223,-7.922,-7.9216,-7.9213,-7.9362,-7.9369,-7.9376,0,0,0,0,0,0,0,0,0,0,0,0,0,-7.8776,-7.8783,-7.9125,-7.9127,-7.9129,-7.9278,-7.928,-7.9282,-7.9224,-7.922,-7.9215,-7.9211,-7.936,-7.9368,-7.9377,0,0,0,0,0,0,0,0,0,0,0,0,0,-7.8928,-7.8785,-7.9125,-7.9118,-7.9119,-7.9278,-7.9281,-7.9283,-7.9225,-7.922,-7.9214,-7.9209,-7.9357,-7.9367,-7.9378,-7.955,0,0,-7.9411,-7.9416,0,0,0,0,0,0,0,0,-7.8919,-7.8941,-7.9117,-7.9119,-7.912,-7.9227,-7.9212,-7.9372,-7.9226,-7.9184,-7.9213,-7.9207,-7.9321,-7.9334,-7.9374,-7.9557,-7.9564,-7.9412,-7.9419,-7.9424,-7.9427,0,0,0,0,0,0,0,-7.8909,-7.8934,-7.9186,-7.912,-7.9122,-7.9105,-7.9121,-7.9242,-7.928,-7.9188,-7.9184,-7.9203,-7.932,-7.9364,-7.9377,-7.9566,-7.9412,-7.9422,-7.9428,-7.9433,-7.9899,-7.9905,0,0,0,0,0,0,-7.8899,-7.8926,-7.9181,-7.919,-7.9005,-7.9116,-7.9134,-7.9198,-7.9279,-7.9286,-7.9208,-7.92,-7.9348,-7.9365,-7.9382,-7.9591,-7.9423,-7.9434,-7.944,-7.9893,-7.99,-7.9907,0,0,0,0,0,0,-7.8892,-7.8922,-7.9175,-7.9057,-7.9088,-7.9128,-7.92,-7.9203,-7.9247,-7.9294,-7.9299,-7.9246,-7.9345,-7.9367,-7.951,-7.9595,-7.9438,-7.9448,-7.9886,-7.9896,-7.9904,-8.0008,0,0,0,0,0,0,-7.8882,-7.892,-7.8987,-7.9059,-7.9095,-7.9302,-7.9205,-7.921,-7.9267,-7.9258,-7.9331,-7.9338,-7.9342,-7.9494,-7.9521,-7.9607,-7.9457,-7.9879,-7.989,-7.9901,-7.9997,-8.0019,-8.0038,0,0,0,0,0,-7.887,-7.9008,-7.8991,-7.9022,-7.918,-7.9307,-7.9327,-7.9332,-7.9274,-7.9341,-7.9371,-7.9335,-7.9581,-7.9509,-7.9539,-7.9629,-7.9874,-7.9887,-7.99,-7.9988,-8.0015,-8.0038,0,0,0,0,0,0,-7.8942,-7.9018,-7.8999,-7.9166,-7.9231,-7.9297,-7.9382,-7.936,-7.944,-7.9429,-7.9429,-7.9445,-7.9593,-7.9625,-7.9544,-7.9801,-7.9718,-7.9738,-7.9775,-7.9801,-7.9821,-7.981,-7.9466,0,0,0,0,0,-7.8978,-7.9078,-7.9137,-7.9278,-7.9312,-7.9342,-7.9397,-7.9396,-7.9462,-7.9488,-7.9528,-7.9592,-7.9684,-7.9744,-7.9831,-8.0001,-8.0016,-8.0078,-8.0099,-8.0115,-8.0132,-8.0226,-8.0254,-7.995,-7.995,-7.995,0,0,-7.9052,-7.9106,-7.9168,-7.9294,-7.9344,-7.9446,-7.9365,-7.9475,-7.9549,-7.9504,-7.9642,-7.9674,-7.9745,-7.9903,-7.9975,-7.9934,-8.022,-8.0132,-8.0145,-8.0153,-8.0242,-8.0271,-8.0297,-7.9959,-7.9958,-7.9956,0,0,-7.924,-7.929,-7.9414,-7.9467,-7.9546,-7.9565,-7.9595,-7.9665,-7.9686,-7.9825,-7.9794,-7.9881,-8.0039,-8.0091,-8.0138,-8.0348,-8.0318,-8.0376,-8.0483,-8.0574,-8.0598,-8.0619,-8.0695,-8.0722,-8.0393,-8.0393,-8.0393,0,-7.9321,-7.9475,-7.948,-7.9594,-7.9651,-7.9617,-7.9742,-7.9792,-7.9894,-7.9932,-7.9887,-8.0086,-8.0131,-8.0301,-8.0353,-8.0392,-8.0425,-8.0368,-8.0595,-8.0616,-8.0636,-8.0708,-8.0736,-8.0399,-8.0399,-8.0398,-8.0397,0,-7.9572,-7.9679,-7.9769,-7.9873,-7.9939,-8.0057,-8.0079,-8.0145,-8.0138,-8.0162,-8.0304,-8.0358,-8.0456,-8.0496,-8.0488,-8.0665,-8.0638,-8.0594,-8.0511,-8.0671,-8.0739,-8.0766,-8.0409,-8.0407,-8.0405,-8.0403,0,0,-7.9808,-7.9915,-7.9948,-7.9995,-8.008,-8.0161,-8.0278,-8.0377,-8.0434,-8.0505,-8.0603,-8.0738,-8.0699,-8.0752,-8.075,-8.083,-8.0994,-8.0776,-8.0778,-8.0815,-8.1193,-8.1227,-8.1259,-8.0975,-8.098,-8.0984,-8.1188,0,-8.0003,-8.0212,-8.0221,-8.041,-8.0509,-8.0479,-8.0581,-8.0643,-8.0668,-8.0754,-8.078,-8.0877,-8.0817,-8.085,-8.0927,-8.0958,-8.107,-8.0943,-8.1064,-8.1069,-8.1048,-8.1294,-8.1329,-8.1519,-8.1214,-8.1218,-8.1222,0,-8.0258,-8.0341,-8.0542,-8.0614,-8.0656,-8.0748,-8.084,-8.0923,-8.0992,-8.1005,-8.1067,-8.1054,-8.1172,-8.1085,-8.1247,-8.1161,-8.1211,-8.1233,-8.1241,-8.1252,-8.1155,-8.1313,-8.1579,-8.1608,-8.1263,-8.126,-8.1257,0,-8.0412,-8.0573,-8.0715,-8.0755,-8.0843,-8.0909,-8.0948,-8.1012,-8.1072,-8.1151,-8.119,-8.1281,-8.133,-8.14,-8.1412,-8.1348,-8.1575,-8.1489,-8.1588,-8.1588,-8.1637,-8.1634,-8.1916,-8.1668,-8.1668,-8.1667,-8.1667,0,-8.0628,-8.0752,-8.0785,-8.0872,-8.101,-8.1018,-8.1153,-8.1187,-8.1245,-8.1337,-8.1315,-8.1401,-8.1411,-8.1499,-8.1508,-8.1642,-8.1664,-8.1676,-8.1677,-8.1679,-8.1678,-8.1712,-8.1699,-8.1675,-8.1673,-8.1672,-8.167,0,-8.0823,-8.085,-8.1003,-8.1075,-8.1096,-8.1194,-8.1254,-8.1337,-8.136,-8.1477,-8.1504,-8.1541,-8.1644,-8.1662,-8.1782,-8.1789,-8.1948,-8.1935,-8.1926,-8.1925,-8.2023,-8.2014,-8.2337,-8.238,-8.2104,-8.2107,-8.2109,0,-8.096,-8.1055,-8.1139,-8.12,-8.1244,-8.1343,-8.1404,-8.1416,-8.148,-8.1568,-8.164,-8.1741,-8.1823,-8.1988,-8.2024,-8.2116,-8.2105,-8.2212,-8.2119,-8.2118,-8.2108,-8.2102,-8.2112,-8.223,-8.2233,-8.2236,-8.2238,0,-8.1201,-8.121,-8.1301,-8.1398,-8.1473,-8.1549,-8.1621,-8.1671,-8.1692,-8.1765,-8.1873,-8.1936,-8.2061,-8.2162,-8.2254,-8.2291,-8.2268,-8.2267,-8.2295,-8.2298,-8.2289,-8.2296,-8.1976,-8.2259,-8.2257,-8.2256,-8.2254,-8.2254,-8.1371,-8.1455,-8.1528,-8.163,-8.1687,-8.1755,-8.1837,-8.1872,-8.1962,-8.2067,-8.2067,-8.2185,-8.2252,-8.2374,-8.2418,-8.2508,-8.2473,-8.2513,-8.2524,-8.2534,-8.2544,-8.2275,-8.2524,-8.2524,-8.2523,-8.2523,-8.2522,0,-8.1611,-8.1657,-8.1752,-8.1855,-8.1936,-8.191,-8.1989,-8.2057,-8.2162,-8.2228,-8.231,-8.2433,-8.2531,-8.2575,-8.2671,-8.2735,-8.2727,-8.276,-8.2755,-8.2765,-8.2568,-8.2535,-8.2765,-8.2765,-8.2765,-8.2765,-8.2765,-8.2765,-8.1746,-8.1887,-8.1906,-8.2074,-8.2118,-8.2236,-8.2283,-8.2345,-8.2399,-8.2538,-8.2621,-8.265,-8.2708,-8.2808,-8.2896,-8.2907,-8.2943,-8.2981,-8.2987,-8.2803,-8.2778,-8.2755,-8.2724,-8.2989,-8.2989,-8.3176,-8.3177,-8.3179]}]]